Location: Newark
(45.2500°N, 7.5833°E)
Time: 11:13:04
(UTC+00:00)

Vanguard 3 - Visible Passes

Search period start: 24 January 2020 00:00
Search period end: 03 February 2020 00:00
Orbit: 507 x 3263 km, 33.4° (Epoch: 24 January)

Date Brightness Start Highest point End Pass type
(mag) Time Alt. Az. Time Alt. Az. Time Alt. Az.
24 Jan 10.5 17:09:32 10° SW 17:27:46 47° SSE 17:41:43 12° E visible
24 Jan 9.6 19:24:30 10° WSW 19:42:35 53° S 19:46:17 46° SSE visible
24 Jan 10.4 21:41:39 10° W 21:50:50 30° WSW 21:50:50 30° WSW visible
25 Jan 10.1 18:07:47 10° WSW 18:26:37 53° S 18:36:27 25° ESE visible
25 Jan 9.7 20:24:03 10° W 20:41:01 48° SSW 20:41:01 48° SSW visible
25 Jan 10.9 22:42:11 10° W 22:45:35 16° WSW 22:45:35 16° WSW visible
26 Jan 10.5 16:51:52 10° SW 17:10:19 49° SSE 17:25:54 10° E visible
26 Jan 9.8 19:06:49 10° WSW 19:25:25 54° S 19:31:12 39° SE visible
26 Jan 10.2 21:24:00 10° W 21:35:46 34° SW 21:35:46 34° SW visible
27 Jan 10.3 17:50:11 10° WSW 18:09:15 55° S 18:21:24 19° ESE visible
27 Jan 9.8 20:06:21 10° W 20:23:54 48° SSW 20:25:58 46° S visible
27 Jan 10.8 22:24:45 10° W 22:30:32 19° WSW 22:30:32 19° WSW visible
28 Jan 10.6 16:34:24 10° SW 16:52:48 52° SSE 17:09:18 10° E visible
28 Jan 10.0 18:49:14 10° WSW 19:08:08 54° S 19:16:12 32° SE visible
28 Jan 10.2 21:06:23 10° W 21:20:46 36° SW 21:20:46 36° SW visible
29 Jan 10.4 17:32:46 10° WSW 17:51:49 56° S 18:06:26 14° ESE visible
29 Jan 9.9 19:48:45 10° W 20:06:39 47° SSW 20:11:01 40° SSE visible
29 Jan 10.8 22:07:21 10° W 22:15:35 21° WSW 22:15:35 21° WSW visible
30 Jan 10.3 18:31:46 10° W 18:50:46 54° S 19:01:18 25° SE visible
30 Jan 10.2 20:48:48 10° W 21:04:32 35° SW 21:05:52 35° SSW visible
31 Jan 10.5 17:15:29 10° WSW 17:34:18 57° S 17:50:59 10° ESE visible
31 Jan 10.1 19:31:14 10° W 19:49:18 46° SSW 19:56:13 32° SSE visible
31 Jan 10.7 21:50:01 10° W 22:00:47 22° SW 22:00:47 22° SW visible
01 Feb 10.4 18:14:25 10° W 18:33:17 54° SSW 18:46:35 17° SE visible
01 Feb 10.3 20:31:20 10° W 20:47:11 34° SW 20:51:11 30° SSW visible
02 Feb 10.6 16:58:21 10° WSW 17:16:45 57° S 17:34:11 10° ESE visible
02 Feb 10.4 19:13:50 10° W 19:31:50 45° SSW 19:41:38 24° SSE visible
02 Feb 10.8 21:32:51 10° W 21:44:21 21° SW 21:46:13 20° SW visible
